Lexington Weather

Lexington, Massachusetts, USA

36°F
1/28/2020 6:44am 
  • Lexington Conditions: Overcast
  • Temperature: 35.8°F / 2.1°CColder 0.5°F than last hour.
  • Dew Point: 29.3°FDecreased 0.5°Fsince last hour.
  • Relative Humidity: 77
  • Wind: Wind from NW NW 2 mph, 10-min avg: 1 mph, gust: 2 mph
  • Barometer: 29.66 inRising 0.02  inHg/hr Rising Slowly
  • Visibility: 10 miles
  • Rain Today: 0.00 in
  •   

Regional Weather Roundup
for Boston / Norton, MA

        
000
ASUS41 KBOX 270110
RWRBOX

REGIONAL WEATHER ROUNDUP
NATIONAL WEATHER SERVICE BOSTON/NORTON MA
800 PM EST SUN JAN 26 2020

NOTE:  "FAIR" INDICATES FEW OR NO CLOUDS BELOW 12,000 FEET WITH NO 
SIGNIFICANT WEATHER AND/OR OBSTRUCTIONS TO VISIBILITY.

MAZALL-270200-
EASTERN MASSACHUSETTS
  
CITY           SKY/WX    TMP DP  RH WIND       PRES   REMARKS
BOSTON         FAIR      42  26  53 W8        29.69S                  
BEVERLY        FAIR      37  26  64 SW6       29.67S                  
LAWRENCE       FAIR      37  27  67 SW10      29.68S WCI  30          
BEDFORD        FAIR      37  25  61 SW7       29.68S WCI  32          
BLUE HILL        N/A     36  26  67 W13       29.67R WCI  27          
NORWOOD        FAIR      40  26  57 SW5       29.71R                  
MARSHFIELD     FAIR      39  30  70 SW5       29.71R                  
PLYMOUTH       FAIR      35  27  72 SW7       29.71S WCI  29          
TAUNTON        FAIR      36  27  69 SW5       29.72R                  
NEW BEDFORD    MOCLDY    32  28  85 CALM      29.72S                  
$$

MAZALL-270200-
CAPE COD AND THE ISLANDS
  
CITY           SKY/WX    TMP DP  RH WIND       PRES   REMARKS
FALMOUTH       CLEAR     36  28  75 W8        29.72R WCI  29          
HYANNIS        FAIR      37  28  70 W5        29.70S                  
CHATHAM        FAIR      38  30  73 W3        29.72S                  
PROVINCETOWN   FAIR      40  32  73 W14       29.70S                  
NANTUCKET      FAIR      40  34  79 W9        29.73R                  
MARTHAS VNYRD  FAIR      39  33  79 W5        29.73R                  
$$
 
MAZALL-270200-
CENTRAL AND WESTERN MASSACHUSETTS
  
CITY           SKY/WX    TMP DP  RH WIND       PRES   REMARKS
WORCESTER      CLOUDY    34  25  69 SW8       29.67S WCI  27          
FITCHBURG      FAIR      33  27  78 S5        29.69R WCI  29          
ORANGE         CLOUDY    39  27  62 SW8       29.69S                  
SPRINGFIELD    CLOUDY    38  28  67 S7        29.70S                  
WESTFIELD      CLOUDY    34  28  79 S5        29.71S WCI  30          
NORTH ADAMS    NOT AVBL                                               
PITTSFIELD     CLOUDY    36  27  69 W8        29.66S WCI  30          
$$
 
RIZALL-270200-
RHODE ISLAND
  
CITY           SKY/WX    TMP DP  RH WIND       PRES   REMARKS
PROVIDENCE     FAIR      36  28  73 SW6       29.73S WCI  31          
NEWPORT        MOCLDY    41  29  62 VRB5      29.72S                  
BLOCK ISLAND   FAIR      40  31  70 W13       29.76R                  
SMITHFIELD     FAIR      34  28  79 SW3       29.71S                  
WESTERLY       FAIR      43  30  60 W8        29.75R                  
$$
 
CTZALL-270200-
CONNECTICUT
  
CITY           SKY/WX    TMP DP  RH WIND       PRES   REMARKS
BRADLEY INTL   MOCLDY    38  27  64 SW6       29.72S                  
HARTFORD       CLOUDY    41  27  57 SW3       29.74S                  
BRIDGEPORT     CLOUDY    41  34  76 SW9       29.77R                  
DANBURY        CLOUDY    38  27  64 SW5       29.76R                  
GROTON         FAIR      40  30  67 W9        29.75R                  
NEW HAVEN      CLOUDY    43  32  65 SW6       29.75F                  
CHESTER        NOT AVBL                                               
MERIDEN        FAIR      32  26  78 SW3       29.75S                  
WILLIMANTIC    CLOUDY    31  28  89 CALM      29.74S                  
OXFORD         CLOUDY    38  28  67 SW5       29.74R                  
$$

MEZ002-015-021-024-NHZ003-005-008-011-012-014-VTZ005-008-270200-
NORTHERN NEW ENGLAND
  
CITY           SKY/WX    TMP DP  RH WIND       PRES   REMARKS
PORTLAND ME    FAIR      39  25  57 W7        29.61S                  
BANGOR ME      MOCLDY    37  34  89 SW3       29.54S                  
CONCORD NH     FAIR      32  25  75 S5        29.64S WCI  27          
MANCHESTER NH  FAIR      37  26  64 SW5       29.64F                  
NASHUA NH      FAIR      36  29  75 VRB3      29.67S                  
PORTSMOUTH NH  CLEAR     37  25  61 SW7       29.63S WCI  32          
JAFFREY NH     CLOUDY    37  27  67 VRB6      29.64F                  
KEENE NH       CLOUDY    38  29  70 S6        29.67S                  
BURLINGTON VT  FLURRIES  35  32  88 S10       29.60S WCI  27          
MT. WASHINGTON SNOW      14  14 100 W54         N/A  VSB 0   WCI -12  
$$

NYZ052-076-270200-
EASTERN NEW YORK
  
CITY           SKY/WX    TMP DP  RH WIND       PRES   REMARKS
ALBANY         DRIZZLE   40  29  64 W7        29.72S                  
NEW YORK CITY  MOCLDY    42  25  50 W18       29.80R                  
$$
 
ANZALL-270200-
MARINE OBSERVATIONS
  
STATION/POSITION TIME  TEMP    WIND        PRES    VSBY  WAVE
                       AIR SEA DIR/SP/G                  HT/PER
                 (UTC) (F)     (DEG/KT/KT) (MB)    (MI)  (FT/S)
BOSTON BUOY      0050   42 43  240/ 14/ 17 1004.8S         4/ 8
BUZZARDS BAY     0000   42     260/ 13/ 14 1007.1R
NANTUCKET SOUND  0040                        N/A
MASS BAY-STELLWA 0004   42 41  280/ 16/ 19 1002.9R  1 7/8  6/11
ISLE OF SHOALS   0000   41     260/ 17/ 19 1003.3R
S OF BLOCK IS    0100      44                N/A           7/10
$$

......................KEY.........................
  SKY/WX - SKY CONDITION/PRESENT WEATHER
  TMP    - TEMPERATURE IN FAHRENHEIT
  DWPT   - DEWPOINT IN FAHRENHEIT
  RH     - RELATIVE HUMIDITY IN PERCENT
  WIND   - DIRECTION AND SPEED IN MPH
  PRES   - MEAN SEA LEVEL PRESSURE IN INCHES OF HG
  WCI    - WIND CHILL INDEX
  VSB    - VISIBILITY IN MILES
  HX     - HEAT INDEX
  TC     - TEMPERATURE IN CELSIUS
  VRB    - VARIABLE WIND DIRECTION
  N/A    - NOT AVAILABLE
  
      

Other recent Regional Weather Roundups

Tue Jan 28, 6:10am

Tue Jan 28, 6:01am

Tue Jan 28, 5:10am

Tue Jan 28, 5:00am

Tue Jan 28, 4:10am

Tue Jan 28, 4:00am

Tue Jan 28, 3:10am

Tue Jan 28, 3:01am

Tue Jan 28, 2:10am

Tue Jan 28, 2:00am

Tue Jan 28, 1:10am

Tue Jan 28, 1:00am

Tue Jan 28, 12:10am

Tue Jan 28, 12:01am

Mon Jan 27, 11:10pm

Mon Jan 27, 11:00pm

Mon Jan 27, 10:10pm

Mon Jan 27, 10:00pm

Mon Jan 27, 9:10pm

Mon Jan 27, 9:00pm

Mon Jan 27, 8:10pm

Mon Jan 27, 8:01pm

Mon Jan 27, 7:10pm

Mon Jan 27, 7:00pm

Mon Jan 27, 6:10pm

Mon Jan 27, 6:00pm

Mon Jan 27, 5:10pm

Mon Jan 27, 5:00pm

Mon Jan 27, 4:10pm

Mon Jan 27, 4:00pm

Mon Jan 27, 3:10pm

Mon Jan 27, 3:00pm

Mon Jan 27, 2:10pm

Mon Jan 27, 2:00pm

Mon Jan 27, 1:10pm

Mon Jan 27, 1:00pm

Mon Jan 27, 12:10pm

Mon Jan 27, 12:00pm

Mon Jan 27, 11:10am

Mon Jan 27, 11:01am

Mon Jan 27, 10:10am

Mon Jan 27, 10:00am

Mon Jan 27, 9:10am

Mon Jan 27, 9:00am

Mon Jan 27, 8:10am

Mon Jan 27, 8:00am

Mon Jan 27, 7:10am

Mon Jan 27, 7:00am

Mon Jan 27, 6:10am

Mon Jan 27, 6:00am

Mon Jan 27, 5:10am

Mon Jan 27, 5:00am

Mon Jan 27, 4:10am

Mon Jan 27, 4:01am

Mon Jan 27, 3:10am

Mon Jan 27, 3:00am

Mon Jan 27, 2:10am

Mon Jan 27, 2:00am

Mon Jan 27, 1:10am

Mon Jan 27, 1:00am

Mon Jan 27, 12:10am

Mon Jan 27, 12:00am

Sun Jan 26, 11:10pm

Sun Jan 26, 11:00pm

Sun Jan 26, 10:10pm

Sun Jan 26, 10:00pm

Sun Jan 26, 9:10pm

Sun Jan 26, 9:01pm

Sun Jan 26, 8:00pm

Sun Jan 26, 7:10pm

Sun Jan 26, 7:00pm

Sun Jan 26, 6:10pm

Sun Jan 26, 6:01pm

Sun Jan 26, 5:10pm

Sun Jan 26, 5:01pm

Sun Jan 26, 4:10pm

Sun Jan 26, 4:00pm

Sun Jan 26, 3:10pm

Sun Jan 26, 3:01pm

Sun Jan 26, 2:10pm

Sun Jan 26, 2:01pm

Sun Jan 26, 1:10pm

Sun Jan 26, 1:00pm

Sun Jan 26, 12:10pm

Sun Jan 26, 12:00pm

Sun Jan 26, 11:10am

Sun Jan 26, 11:01am

Sun Jan 26, 10:10am

Sun Jan 26, 10:01am

Sun Jan 26, 9:10am

Sun Jan 26, 9:00am

Sun Jan 26, 8:10am

Sun Jan 26, 8:00am

Sun Jan 26, 7:10am

Sun Jan 26, 7:00am

Sun Jan 26, 6:10am

Sun Jan 26, 6:00am

Sun Jan 26, 5:10am

Sun Jan 26, 5:00am

Sun Jan 26, 4:10am

Sun Jan 26, 4:01am

Sun Jan 26, 3:10am

Sun Jan 26, 3:01am

Sun Jan 26, 2:10am

Sun Jan 26, 2:00am

Sun Jan 26, 1:10am

Sun Jan 26, 1:00am

Sun Jan 26, 12:10am

Sun Jan 26, 12:00am

Sat Jan 25, 11:10pm

Sat Jan 25, 11:00pm

Sat Jan 25, 10:10pm

Sat Jan 25, 10:01pm

Sat Jan 25, 9:10pm

Sat Jan 25, 9:01pm

Sat Jan 25, 8:10pm

Sat Jan 25, 8:01pm

Sat Jan 25, 7:10pm

Sat Jan 25, 7:01pm

Sat Jan 25, 6:10pm

Sat Jan 25, 6:01pm

Sat Jan 25, 5:10pm

Sat Jan 25, 5:01pm

Sat Jan 25, 4:10pm

Sat Jan 25, 4:00pm

Sat Jan 25, 3:10pm

Sat Jan 25, 3:01pm

Sat Jan 25, 2:10pm

Sat Jan 25, 2:00pm

Sat Jan 25, 1:10pm

Sat Jan 25, 1:00pm

Sat Jan 25, 12:10pm

Sat Jan 25, 12:00pm

Sat Jan 25, 11:10am

Sat Jan 25, 11:00am

Sat Jan 25, 10:10am

Sat Jan 25, 10:00am

Sat Jan 25, 9:10am

Sat Jan 25, 9:00am

Sat Jan 25, 8:10am

Sat Jan 25, 8:01am

Sat Jan 25, 7:10am

Sat Jan 25, 7:00am

Meta data:

ID: 33e92a2e-5f18-46c2-b625-d7f24b9b8930
Link: https://api.weather.gov/products/33e92a2e-5f18-46c2-b625-d7f24b9b8930